Torna al catalogo

CZ-6A DEB

AttivoPO
NORAD 61450·DEBRIS·🇨🇳 China

Lanciato Aug 6, 2024 da Taiyuan Satellite Launch Center

Loading…

Prossimi Passaggi (prossime 24 ore)

TLE

AggiornatoSource: Space-Track

Epoca: Sep 13, 2026, 11:42 UTC

1 61450U 24140ZG  26256.48816141  .00002150  00000-0  80913-3 0  9993
2 61450  89.1122 274.2133 0073954 297.0790  62.2873 14.29728663106356

Traccia CZ-6A DEB in tempo reale con AllMySat

Download on the App Store